Location: Grossmotten
(48.5500°N, 15.3833°E)
Time: 03:53:07
(UTC+00:00)

Cosmos 1153 Rocket - Pass Details

Date: 15 November 2019
Orbit: 953 x 1006 km, 82.9° (Epoch: 05 December)

Event Time Altitude Azimuth Distance (km) Brightness Sun altitude
Rises 04:13:48 0° 199° (SSW) 3,625 7.4 -18.4°
Reaches altitude 10° 04:16:19 10° 203° (SSW) 2,680 6.6 -18.0°
Maximum altitude 04:22:21 60° 283° (WNW) 1,090 4.4 -17.0°
Drops below altitude 10° 04:28:26 10° 3° (N) 2,696 6.7 -16.0°
Sets 04:31:00 0° 7° (N) 3,649 7.5 -15.6°
